This is the latest recevied weather packets stored in our database for station/object WO0TEN. If no packets are shown the sender has not sent any weather packets the latest 1 day(s).
| Time | Temp. | Humidity | Pressure | Rain* | Wind** | Luminosity | Snow |
|---|---|---|---|---|---|---|---|
| 1836274439 | 25.56° C | 6% | - | 7.62 mm | 0 m/s | - | - |
| 1836274290 | 25° C | 6% | - | 7.62 mm | 0 m/s | - | - |
| 1778053868 | 23.89° C | 9% | - | 7.37 mm | 0.45 m/s, 225° | - | - |
| 1778053268 | 23.89° C | 9% | - | 7.37 mm | 0 m/s | - | - |
| 1778052668 | 23.89° C | 9% | - | 7.37 mm | 0.89 m/s, 270° | - | - |
| 1778052067 | 23.89° C | 9% | - | 7.37 mm | 0.45 m/s, 270° | - | - |
| 1778051467 | 23.89° C | 9% | - | 7.37 mm | 1.34 m/s, 225° | - | - |
| 1778050868 | 23.89° C | 9% | - | 7.37 mm | 0.45 m/s, 270° | - | - |
| 1778050266 | 23.89° C | 9% | - | 7.37 mm | 0.89 m/s, 225° | - | - |
| 1778049667 | 23.89° C | 9% | - | 7.37 mm | 0.89 m/s, 338° | - | - |
| 1778049067 | 23.89° C | 9% | - | 7.37 mm | 1.34 m/s, 270° | - | - |
| 1778048466 | 23.89° C | 9% | - | 7.37 mm | 0.45 m/s, 270° | - | - |
| 1778047867 | 23.89° C | 9% | - | 7.37 mm | 0.89 m/s, 270° | - | - |
| 1778047268 | 23.89° C | 9% | - | 7.37 mm | 1.34 m/s, 248° | - | - |
| 1778046666 | 23.89° C | 9% | - | 7.37 mm | 1.79 m/s, 270° | - | - |
| 1778046067 | 23.89° C | 9% | - | 7.37 mm | 1.34 m/s, 270° | - | - |
| 1778045467 | 23.89° C | 9% | - | 7.37 mm | 0.89 m/s, 270° | - | - |
| 1778044867 | 23.89° C | 9% | - | 7.37 mm | 0.45 m/s, 270° | - | - |
| 1778044267 | 23.89° C | 9% | - | 7.37 mm | 0.45 m/s, 293° | - | - |
| 1778043667 | 23.89° C | 9% | - | 7.37 mm | 0.45 m/s, 293° | - | - |
| 1778043067 | 23.89° C | 9% | - | 7.37 mm | 0.89 m/s, 270° | - | - |
| 1778042467 | 23.89° C | 9% | - | 7.37 mm | 0.45 m/s, 270° | - | - |
| 1778041867 | 24.44° C | 9% | - | 7.37 mm | 0.45 m/s, 270° | - | - |
| 1778041268 | 24.44° C | 9% | - | 7.37 mm | 0 m/s | - | - |
| 1778040667 | 24.44° C | 9% | - | 7.37 mm | 0 m/s | - | - |
* Rain since midnight (hover to see other rain measurements)
** Current wind speed in m/s (hover to see current wind gust speed)